Year,Month,Day,Hour,Minute,Value (Times are PST for temperature in C)
2010,07,10,00,00,19.50
2010,07,10,00,01,19.50
2010,07,10,00,02,19.50
2010,07,10,00,03,19.50
2010,07,10,00,04,19.60
2010,07,10,00,05,19.60
2010,07,10,00,06,19.60
2010,07,10,00,07,19.70
2010,07,10,00,08,19.70
2010,07,10,00,09,19.70
2010,07,10,00,10,19.70
2010,07,10,00,11,19.70
2010,07,10,00,12,19.70
2010,07,10,00,13,19.70
2010,07,10,00,14,19.70
2010,07,10,00,15,19.70
2010,07,10,00,16,19.70
2010,07,10,00,17,19.70
2010,07,10,00,18,19.60
2010,07,10,00,19,19.60
2010,07,10,00,20,19.60
2010,07,10,00,21,19.60
2010,07,10,00,22,19.60
2010,07,10,00,23,19.60
2010,07,10,00,24,19.50
2010,07,10,00,25,19.50
2010,07,10,00,26,19.50
2010,07,10,00,27,19.40
2010,07,10,00,28,19.40
2010,07,10,00,29,19.40
2010,07,10,00,30,19.30
2010,07,10,00,31,19.30
2010,07,10,00,32,19.30
2010,07,10,00,33,19.30
2010,07,10,00,34,19.30
2010,07,10,00,35,19.30
2010,07,10,00,36,19.30
2010,07,10,00,37,19.30
2010,07,10,00,38,19.30
2010,07,10,00,39,19.30
2010,07,10,00,40,19.30
2010,07,10,00,41,19.30
2010,07,10,00,42,19.30
2010,07,10,00,43,19.30
2010,07,10,00,44,19.30
2010,07,10,00,45,19.30
2010,07,10,00,46,19.30
2010,07,10,00,47,19.30
2010,07,10,00,48,19.30
2010,07,10,00,49,19.30
2010,07,10,00,50,19.20
2010,07,10,00,51,19.20
2010,07,10,00,52,19.20
2010,07,10,00,53,19.20
2010,07,10,00,54,19.20
2010,07,10,00,55,19.20
2010,07,10,00,56,19.20
2010,07,10,00,57,19.20
2010,07,10,00,58,19.20
2010,07,10,00,59,19.20
2010,07,10,01,00,19.20
2010,07,10,01,01,19.20
2010,07,10,01,02,19.20
2010,07,10,01,03,19.20
2010,07,10,01,04,19.20
2010,07,10,01,05,19.20
2010,07,10,01,06,19.10
2010,07,10,01,07,19.10
2010,07,10,01,08,19.10
2010,07,10,01,09,19.10
2010,07,10,01,10,19.10
2010,07,10,01,11,19.10
2010,07,10,01,12,19.10
2010,07,10,01,13,19.10
2010,07,10,01,14,19.10
2010,07,10,01,15,19.10
2010,07,10,01,16,19.00
2010,07,10,01,17,19.00
2010,07,10,01,18,19.00
2010,07,10,01,19,18.90
2010,07,10,01,20,18.90
2010,07,10,01,21,18.90
2010,07,10,01,22,18.90
2010,07,10,01,23,18.90
2010,07,10,01,24,18.90
2010,07,10,01,25,18.90
2010,07,10,01,26,18.80
2010,07,10,01,27,18.80
2010,07,10,01,28,18.80
2010,07,10,01,29,18.80
2010,07,10,01,30,18.80
2010,07,10,01,31,18.80
2010,07,10,01,32,18.80
2010,07,10,01,33,18.90
2010,07,10,01,34,18.90
2010,07,10,01,35,18.90
2010,07,10,01,36,18.90
2010,07,10,01,37,18.80
2010,07,10,01,38,18.80
2010,07,10,01,39,18.80
2010,07,10,01,40,18.80
2010,07,10,01,41,18.80
2010,07,10,01,42,18.80
2010,07,10,01,43,18.80
2010,07,10,01,44,18.80
2010,07,10,01,45,18.80
2010,07,10,01,46,18.80
2010,07,10,01,47,18.70
2010,07,10,01,48,18.70
2010,07,10,01,49,18.70
2010,07,10,01,50,18.70
2010,07,10,01,51,18.70
2010,07,10,01,52,18.70
2010,07,10,01,53,18.70
2010,07,10,01,54,18.70
2010,07,10,01,55,18.70
2010,07,10,01,56,18.60
2010,07,10,01,57,18.60
2010,07,10,01,58,18.60
2010,07,10,01,59,18.50
2010,07,10,02,00,18.50
2010,07,10,02,01,18.40
2010,07,10,02,02,18.40
2010,07,10,02,03,18.40
2010,07,10,02,04,18.40
2010,07,10,02,05,18.40
2010,07,10,02,06,18.40
2010,07,10,02,07,18.40
2010,07,10,02,08,18.40
2010,07,10,02,09,18.40
2010,07,10,02,10,18.40
2010,07,10,02,11,18.40
2010,07,10,02,12,18.40
2010,07,10,02,13,18.40
2010,07,10,02,14,18.40
2010,07,10,02,15,18.50
2010,07,10,02,16,18.50
2010,07,10,02,17,18.50
2010,07,10,02,18,18.60
2010,07,10,02,19,18.60
2010,07,10,02,20,18.60
2010,07,10,02,21,18.60
2010,07,10,02,22,18.60
2010,07,10,02,23,18.60
2010,07,10,02,24,18.60
2010,07,10,02,25,18.60
2010,07,10,02,26,18.70
2010,07,10,02,27,18.70
2010,07,10,02,28,18.70
2010,07,10,02,29,18.70
2010,07,10,02,30,18.70
2010,07,10,02,31,18.70
2010,07,10,02,32,18.70
2010,07,10,02,33,18.70
2010,07,10,02,34,18.70
2010,07,10,02,35,18.70
2010,07,10,02,36,18.70
2010,07,10,02,37,18.70
2010,07,10,02,38,18.70
2010,07,10,02,39,18.60
2010,07,10,02,40,18.60
2010,07,10,02,41,18.60
2010,07,10,02,42,18.60
2010,07,10,02,43,18.60
2010,07,10,02,44,18.60
2010,07,10,02,45,18.50
2010,07,10,02,46,18.50
2010,07,10,02,47,18.50
2010,07,10,02,48,18.40
2010,07,10,02,49,18.40
2010,07,10,02,50,18.40
2010,07,10,02,51,18.40
2010,07,10,02,52,18.40
2010,07,10,02,53,18.40
2010,07,10,02,54,18.40
2010,07,10,02,55,18.40
2010,07,10,02,56,18.40
2010,07,10,02,57,18.40
2010,07,10,02,58,18.40
2010,07,10,02,59,18.40
2010,07,10,03,00,18.40
2010,07,10,03,01,18.40
2010,07,10,03,02,18.40
2010,07,10,03,03,18.40
2010,07,10,03,04,18.40
2010,07,10,03,05,18.40
2010,07,10,03,06,18.40
2010,07,10,03,07,18.40
2010,07,10,03,08,18.40
2010,07,10,03,09,18.40
2010,07,10,03,10,18.40
2010,07,10,03,11,18.40
2010,07,10,03,12,18.40
2010,07,10,03,13,18.40
2010,07,10,03,14,18.40
2010,07,10,03,15,18.30
2010,07,10,03,16,18.30
2010,07,10,03,17,18.30
2010,07,10,03,18,18.30
2010,07,10,03,19,18.30
2010,07,10,03,20,18.30
2010,07,10,03,21,18.30
2010,07,10,03,22,18.30
2010,07,10,03,23,18.30
2010,07,10,03,24,18.30
2010,07,10,03,25,18.30
2010,07,10,03,26,18.30
2010,07,10,03,27,18.30
2010,07,10,03,28,18.30
2010,07,10,03,29,18.30
2010,07,10,03,30,18.30
2010,07,10,03,31,18.30
2010,07,10,03,32,18.30
2010,07,10,03,33,18.30
2010,07,10,03,34,18.30
2010,07,10,03,35,18.30
2010,07,10,03,36,18.30
2010,07,10,03,37,18.20
2010,07,10,03,38,18.20
2010,07,10,03,39,18.20
2010,07,10,03,40,18.20
2010,07,10,03,41,18.20
2010,07,10,03,42,18.20
2010,07,10,03,43,18.20
2010,07,10,03,44,18.20
2010,07,10,03,45,18.20
2010,07,10,03,46,18.20
2010,07,10,03,47,18.20
2010,07,10,03,48,18.20
2010,07,10,03,49,18.20
2010,07,10,03,50,18.20
2010,07,10,03,51,18.20
2010,07,10,03,52,18.20
2010,07,10,03,53,18.20
2010,07,10,03,54,18.20
2010,07,10,03,55,18.20
2010,07,10,03,56,18.10
2010,07,10,03,57,18.10
2010,07,10,03,58,18.10
2010,07,10,03,59,18.10
2010,07,10,04,00,18.10
2010,07,10,04,01,18.00
2010,07,10,04,02,18.00
2010,07,10,04,03,18.00
2010,07,10,04,04,18.00
2010,07,10,04,05,17.90
2010,07,10,04,06,17.90
2010,07,10,04,07,17.90
2010,07,10,04,08,17.90
2010,07,10,04,09,17.90
2010,07,10,04,10,17.90
2010,07,10,04,11,17.90
2010,07,10,04,12,17.90
2010,07,10,04,13,17.80
2010,07,10,04,14,17.80
2010,07,10,04,15,17.80
2010,07,10,04,16,17.80
2010,07,10,04,17,17.80
2010,07,10,04,18,17.80
2010,07,10,04,19,17.80
2010,07,10,04,20,17.70
2010,07,10,04,21,17.70
2010,07,10,04,22,17.70
2010,07,10,04,23,17.70
2010,07,10,04,24,17.70
2010,07,10,04,25,17.70
2010,07,10,04,26,17.70
2010,07,10,04,27,17.70
2010,07,10,04,28,17.60
2010,07,10,04,29,17.60
2010,07,10,04,30,17.60
2010,07,10,04,31,17.60
2010,07,10,04,32,17.60
2010,07,10,04,33,17.60
2010,07,10,04,34,17.60
2010,07,10,04,35,17.60
2010,07,10,04,36,17.60
2010,07,10,04,37,17.50
2010,07,10,04,38,17.50
2010,07,10,04,39,17.50
2010,07,10,04,40,17.50
2010,07,10,04,41,17.50
2010,07,10,04,42,17.50
2010,07,10,04,43,17.40
2010,07,10,04,44,17.40
2010,07,10,04,45,17.40
2010,07,10,04,46,17.40
2010,07,10,04,47,17.40
2010,07,10,04,48,17.40
2010,07,10,04,49,17.30
2010,07,10,04,50,17.30
2010,07,10,04,51,17.30
2010,07,10,04,52,17.30
2010,07,10,04,53,17.30
2010,07,10,04,54,17.30
2010,07,10,04,55,17.20
2010,07,10,04,56,17.20
2010,07,10,04,57,17.20
2010,07,10,04,58,17.20
2010,07,10,04,59,17.20
2010,07,10,05,00,17.10
2010,07,10,05,01,17.10
2010,07,10,05,02,17.10
2010,07,10,05,03,17.10
2010,07,10,05,04,17.10
2010,07,10,05,05,17.00
2010,07,10,05,06,17.00
2010,07,10,05,07,17.00
2010,07,10,05,08,17.00
2010,07,10,05,09,17.00
2010,07,10,05,10,16.90
2010,07,10,05,11,16.90
2010,07,10,05,12,16.90
2010,07,10,05,13,16.90
2010,07,10,05,14,16.90
2010,07,10,05,15,16.90
2010,07,10,05,16,16.80
2010,07,10,05,17,16.80
2010,07,10,05,18,16.80
2010,07,10,05,19,16.80
2010,07,10,05,20,16.80
2010,07,10,05,21,16.70
2010,07,10,05,22,16.70
2010,07,10,05,23,16.70
2010,07,10,05,24,16.70
2010,07,10,05,25,16.70
2010,07,10,05,26,16.60
2010,07,10,05,27,16.60
2010,07,10,05,28,16.60
2010,07,10,05,29,16.60
2010,07,10,05,30,16.60
2010,07,10,05,31,16.60
2010,07,10,05,32,16.60
2010,07,10,05,33,16.60
2010,07,10,05,34,16.50
2010,07,10,05,35,16.50
2010,07,10,05,36,16.50
2010,07,10,05,37,16.40
2010,07,10,05,38,16.40
2010,07,10,05,39,16.40
2010,07,10,05,40,16.40
2010,07,10,05,41,16.40
2010,07,10,05,42,16.30
2010,07,10,05,43,16.30
2010,07,10,05,44,16.30
2010,07,10,05,45,16.30
2010,07,10,05,46,16.30
2010,07,10,05,47,16.30
2010,07,10,05,48,16.30
2010,07,10,05,49,16.30
2010,07,10,05,50,16.20
2010,07,10,05,51,16.20
2010,07,10,05,52,16.20
2010,07,10,05,53,16.20
2010,07,10,05,54,16.20
2010,07,10,05,55,16.20
2010,07,10,05,56,16.10
2010,07,10,05,57,16.10
2010,07,10,05,58,16.10
2010,07,10,05,59,16.10
2010,07,10,06,00,16.10
2010,07,10,06,01,16.10
2010,07,10,06,02,16.10
2010,07,10,06,03,16.10
2010,07,10,06,04,16.10
2010,07,10,06,05,16.10
2010,07,10,06,06,16.10
2010,07,10,06,07,16.00
2010,07,10,06,08,16.00
2010,07,10,06,09,16.00
2010,07,10,06,10,16.00
2010,07,10,06,11,16.00
2010,07,10,06,12,16.00
2010,07,10,06,13,15.90
2010,07,10,06,14,15.90
2010,07,10,06,15,15.90
2010,07,10,06,16,15.90
2010,07,10,06,17,15.90
2010,07,10,06,18,15.90
2010,07,10,06,19,15.90
2010,07,10,06,20,15.90
2010,07,10,06,21,15.90
2010,07,10,06,22,15.90
2010,07,10,06,23,15.90
2010,07,10,06,24,15.80
2010,07,10,06,25,15.80
2010,07,10,06,26,15.80
2010,07,10,06,27,15.80
2010,07,10,06,28,15.80
2010,07,10,06,29,15.80
2010,07,10,06,30,15.80
2010,07,10,06,31,15.80
2010,07,10,06,32,15.80
2010,07,10,06,33,15.80
2010,07,10,06,34,15.80
2010,07,10,06,35,15.80
2010,07,10,06,36,15.80
2010,07,10,06,37,15.80
2010,07,10,06,38,15.80
2010,07,10,06,39,15.90
2010,07,10,06,40,15.90
2010,07,10,06,41,15.90
2010,07,10,06,42,15.90
2010,07,10,06,43,15.90
2010,07,10,06,44,15.90
2010,07,10,06,45,15.90
2010,07,10,06,46,15.90
2010,07,10,06,47,16.00
2010,07,10,06,48,16.00
2010,07,10,06,49,16.00
2010,07,10,06,50,16.00
2010,07,10,06,51,16.00
2010,07,10,06,52,16.00
2010,07,10,06,53,16.10
2010,07,10,06,54,16.10
2010,07,10,06,55,16.10
2010,07,10,06,56,16.10
2010,07,10,06,57,16.10
2010,07,10,06,58,16.10
2010,07,10,06,59,16.10
2010,07,10,07,00,16.10
2010,07,10,07,01,16.10
2010,07,10,07,02,16.10
2010,07,10,07,03,16.10
2010,07,10,07,04,16.10
2010,07,10,07,05,16.10
2010,07,10,07,06,16.20
2010,07,10,07,07,16.20
2010,07,10,07,08,16.20
2010,07,10,07,09,16.20
2010,07,10,07,10,16.20
2010,07,10,07,11,16.20
2010,07,10,07,12,16.20
2010,07,10,07,13,16.20
2010,07,10,07,14,16.20
2010,07,10,07,15,16.30
2010,07,10,07,16,16.30
2010,07,10,07,17,16.30
2010,07,10,07,18,16.30
2010,07,10,07,19,16.20
2010,07,10,07,20,16.30
2010,07,10,07,21,16.30
2010,07,10,07,22,16.30
2010,07,10,07,23,16.30
2010,07,10,07,24,16.30
2010,07,10,07,25,16.30
2010,07,10,07,26,16.30
2010,07,10,07,27,16.30
2010,07,10,07,28,16.30
2010,07,10,07,29,16.30
2010,07,10,07,30,16.30
2010,07,10,07,31,16.40
2010,07,10,07,32,16.40
2010,07,10,07,33,16.40
2010,07,10,07,34,16.40
2010,07,10,07,35,16.40
2010,07,10,07,36,16.40
2010,07,10,07,37,16.50
2010,07,10,07,38,16.50
2010,07,10,07,39,16.50
2010,07,10,07,40,16.60
2010,07,10,07,41,16.60
2010,07,10,07,42,16.60
2010,07,10,07,43,16.60
2010,07,10,07,44,16.60
2010,07,10,07,45,16.70
2010,07,10,07,46,16.70
2010,07,10,07,47,16.70
2010,07,10,07,48,16.80
2010,07,10,07,49,16.80
2010,07,10,07,50,16.80
2010,07,10,07,51,16.90
2010,07,10,07,52,17.00
2010,07,10,07,53,17.00
2010,07,10,07,54,17.10
2010,07,10,07,55,17.20
2010,07,10,07,56,17.30
2010,07,10,07,57,17.40
2010,07,10,07,58,17.50
2010,07,10,07,59,17.60
2010,07,10,08,00,17.60
2010,07,10,08,01,17.70
2010,07,10,08,02,17.80
2010,07,10,08,03,17.90
2010,07,10,08,04,18.00
2010,07,10,08,05,18.20
2010,07,10,08,06,18.30
2010,07,10,08,07,18.40
2010,07,10,08,08,18.50
2010,07,10,08,09,18.60
2010,07,10,08,10,18.70
2010,07,10,08,11,18.80
2010,07,10,08,12,18.90
2010,07,10,08,13,18.90
2010,07,10,08,14,19.00
2010,07,10,08,15,19.10
2010,07,10,08,16,19.20
2010,07,10,08,17,19.30
2010,07,10,08,18,19.30
2010,07,10,08,19,19.40
2010,07,10,08,20,19.50
2010,07,10,08,21,19.50
2010,07,10,08,22,19.60
2010,07,10,08,23,19.70
2010,07,10,08,24,19.70
2010,07,10,08,25,19.70
2010,07,10,08,26,19.80
2010,07,10,08,27,19.80
2010,07,10,08,28,19.80
2010,07,10,08,29,19.80
2010,07,10,08,30,19.80
2010,07,10,08,31,19.90
2010,07,10,08,32,19.90
2010,07,10,08,33,19.90
2010,07,10,08,34,19.90
2010,07,10,08,35,19.90
2010,07,10,08,36,19.90
2010,07,10,08,37,19.90
2010,07,10,08,38,19.90
2010,07,10,08,39,19.80
2010,07,10,08,40,19.80
2010,07,10,08,41,19.80
2010,07,10,08,42,19.80
2010,07,10,08,43,19.70
2010,07,10,08,44,19.70
2010,07,10,08,45,19.70
2010,07,10,08,46,19.70
2010,07,10,08,47,19.80
2010,07,10,08,48,19.80
2010,07,10,08,49,19.80
2010,07,10,08,50,19.80
2010,07,10,08,51,19.90
2010,07,10,08,52,19.90
2010,07,10,08,53,19.90
2010,07,10,08,54,19.90
2010,07,10,08,55,20.00
2010,07,10,08,56,20.00
2010,07,10,08,57,20.10
2010,07,10,08,58,20.10
2010,07,10,08,59,20.10
2010,07,10,09,00,20.20
2010,07,10,09,01,20.20
2010,07,10,09,02,20.20
2010,07,10,09,03,20.20
2010,07,10,09,04,20.20
2010,07,10,09,05,20.10
2010,07,10,09,06,20.10
2010,07,10,09,07,20.10
2010,07,10,09,08,20.10
2010,07,10,09,09,20.10
2010,07,10,09,10,20.10
2010,07,10,09,11,20.10
2010,07,10,09,12,20.10
2010,07,10,09,13,20.20
2010,07,10,09,14,20.20
2010,07,10,09,15,20.10
2010,07,10,09,16,20.10
2010,07,10,09,17,20.10
2010,07,10,09,18,20.10
2010,07,10,09,19,20.10
2010,07,10,09,20,20.00
2010,07,10,09,21,20.00
2010,07,10,09,22,19.90
2010,07,10,09,23,19.90
2010,07,10,09,24,19.90
2010,07,10,09,25,19.90
2010,07,10,09,26,19.80
2010,07,10,09,27,19.80
2010,07,10,09,28,19.80
2010,07,10,09,29,19.80
2010,07,10,09,30,19.70
2010,07,10,09,31,19.70
2010,07,10,09,32,19.70
2010,07,10,09,33,19.70
2010,07,10,09,34,19.60
2010,07,10,09,35,19.60
2010,07,10,09,36,19.60
2010,07,10,09,37,19.60
2010,07,10,09,38,19.60
2010,07,10,09,39,19.60
2010,07,10,09,40,19.60
2010,07,10,09,41,19.70
2010,07,10,09,42,19.70
2010,07,10,09,43,19.70
2010,07,10,09,44,19.70
2010,07,10,09,45,19.70
2010,07,10,09,46,19.70
2010,07,10,09,47,19.70
2010,07,10,09,48,19.70
2010,07,10,09,49,19.80
2010,07,10,09,50,19.80
2010,07,10,09,51,19.80
2010,07,10,09,52,19.80
2010,07,10,09,53,19.80
2010,07,10,09,54,19.80
2010,07,10,09,55,19.80
2010,07,10,09,56,19.80
2010,07,10,09,57,19.80
2010,07,10,09,58,19.80
2010,07,10,09,59,19.80
2010,07,10,10,00,19.80
2010,07,10,10,01,19.80
2010,07,10,10,02,19.80
2010,07,10,10,03,19.80
2010,07,10,10,04,19.90
2010,07,10,10,05,19.90
2010,07,10,10,06,19.90
2010,07,10,10,07,20.00
2010,07,10,10,08,20.00
2010,07,10,10,09,20.10
2010,07,10,10,10,20.20
2010,07,10,10,11,20.20
2010,07,10,10,12,20.30
2010,07,10,10,13,20.30
2010,07,10,10,14,20.40
2010,07,10,10,15,20.40
2010,07,10,10,16,20.50
2010,07,10,10,17,20.60
2010,07,10,10,18,20.60
2010,07,10,10,19,20.60
2010,07,10,10,20,20.70
2010,07,10,10,21,20.70
2010,07,10,10,22,20.70
2010,07,10,10,23,20.80
2010,07,10,10,24,20.80
2010,07,10,10,25,20.80
2010,07,10,10,26,20.90
2010,07,10,10,27,20.80
2010,07,10,10,28,20.80
2010,07,10,10,29,20.80
2010,07,10,10,30,20.80
2010,07,10,10,31,20.80
2010,07,10,10,32,20.80
2010,07,10,10,33,20.80
2010,07,10,10,34,20.80
2010,07,10,10,35,20.80
2010,07,10,10,36,20.80
2010,07,10,10,37,20.80
2010,07,10,10,38,20.80
2010,07,10,10,39,20.80
2010,07,10,10,40,20.80
2010,07,10,10,41,20.80
2010,07,10,10,42,20.80
2010,07,10,10,43,20.80
2010,07,10,10,44,20.80
2010,07,10,10,45,20.80
2010,07,10,10,46,20.70
2010,07,10,10,47,20.70
2010,07,10,10,48,20.60
2010,07,10,10,49,20.60
2010,07,10,10,50,20.60
2010,07,10,10,51,20.70
2010,07,10,10,52,20.70
2010,07,10,10,53,20.70
2010,07,10,10,54,20.80
2010,07,10,10,55,20.80
2010,07,10,10,56,20.90
2010,07,10,10,57,20.90
2010,07,10,10,58,20.90
2010,07,10,10,59,21.00
2010,07,10,11,00,21.00
2010,07,10,11,01,21.10
2010,07,10,11,02,21.10
2010,07,10,11,03,21.20
2010,07,10,11,04,21.20
2010,07,10,11,05,21.30
2010,07,10,11,06,21.30
2010,07,10,11,07,21.30
2010,07,10,11,08,21.40
2010,07,10,11,09,21.40
2010,07,10,11,10,21.40
2010,07,10,11,11,21.40
2010,07,10,11,12,21.40
2010,07,10,11,13,21.40
2010,07,10,11,14,21.50
2010,07,10,11,15,21.50
2010,07,10,11,16,21.60
2010,07,10,11,17,21.60
2010,07,10,11,18,21.60
2010,07,10,11,19,21.70
2010,07,10,11,20,21.70
2010,07,10,11,21,21.70
2010,07,10,11,22,21.70
2010,07,10,11,23,21.80
2010,07,10,11,24,21.80
2010,07,10,11,25,21.80
2010,07,10,11,26,21.80
2010,07,10,11,27,21.80
2010,07,10,11,28,21.80
2010,07,10,11,29,21.80
2010,07,10,11,30,21.70
2010,07,10,11,31,21.70
2010,07,10,11,32,21.60
2010,07,10,11,33,21.60
2010,07,10,11,34,21.50
2010,07,10,11,35,21.40
2010,07,10,11,36,21.40
2010,07,10,11,37,21.40
2010,07,10,11,38,21.30
2010,07,10,11,39,21.40
2010,07,10,11,40,21.40
2010,07,10,11,41,21.40
2010,07,10,11,42,21.30
2010,07,10,11,43,21.30
2010,07,10,11,44,21.30
2010,07,10,11,45,21.30
2010,07,10,11,46,21.30
2010,07,10,11,47,21.30
2010,07,10,11,48,21.30
2010,07,10,11,49,21.20
2010,07,10,11,50,21.20
2010,07,10,11,51,21.10
2010,07,10,11,52,21.10
2010,07,10,11,53,21.10
2010,07,10,11,54,21.10
2010,07,10,11,55,21.10
2010,07,10,11,56,21.20
2010,07,10,11,57,21.20
2010,07,10,11,58,21.30
2010,07,10,11,59,21.30
2010,07,10,12,00,21.40
2010,07,10,12,01,21.50
2010,07,10,12,02,21.60
2010,07,10,12,03,21.60
2010,07,10,12,04,21.70
2010,07,10,12,05,21.70
2010,07,10,12,06,21.70
2010,07,10,12,07,21.70
2010,07,10,12,08,21.80
2010,07,10,12,09,21.80
2010,07,10,12,10,21.80
2010,07,10,12,11,21.80
2010,07,10,12,12,21.90
2010,07,10,12,13,21.90
2010,07,10,12,14,21.90
2010,07,10,12,15,21.90
2010,07,10,12,16,21.90
2010,07,10,12,17,21.90
2010,07,10,12,18,21.90
2010,07,10,12,19,21.90
2010,07,10,12,20,21.90
2010,07,10,12,21,22.00
2010,07,10,12,22,22.00
2010,07,10,12,23,22.10
2010,07,10,12,24,22.10
2010,07,10,12,25,22.00
2010,07,10,12,26,21.90
2010,07,10,12,27,21.90
2010,07,10,12,28,21.90
2010,07,10,12,29,21.80
2010,07,10,12,30,21.80
2010,07,10,12,31,21.80
2010,07,10,12,32,21.80
2010,07,10,12,33,21.90
2010,07,10,12,34,21.90
2010,07,10,12,35,21.90
2010,07,10,12,36,22.00
2010,07,10,12,37,22.10
2010,07,10,12,38,22.10
2010,07,10,12,39,22.20
2010,07,10,12,40,22.20
2010,07,10,12,41,22.20
2010,07,10,12,42,22.20
2010,07,10,12,43,22.30
2010,07,10,12,44,22.30
2010,07,10,12,45,22.30
2010,07,10,12,46,22.30
2010,07,10,12,47,22.40
2010,07,10,12,48,22.50
2010,07,10,12,49,22.60
2010,07,10,12,50,22.60
2010,07,10,12,51,22.70
2010,07,10,12,52,22.70
2010,07,10,12,53,22.70
2010,07,10,12,54,22.70
2010,07,10,12,55,22.70
2010,07,10,12,56,22.70
2010,07,10,12,57,22.70
2010,07,10,12,58,22.70
2010,07,10,12,59,22.70
2010,07,10,13,00,22.80
2010,07,10,13,01,22.80
2010,07,10,13,02,22.80
2010,07,10,13,03,22.80
2010,07,10,13,04,22.90
2010,07,10,13,05,22.90
2010,07,10,13,06,23.00
2010,07,10,13,07,23.00
2010,07,10,13,08,23.10
2010,07,10,13,09,23.20
2010,07,10,13,10,23.30
2010,07,10,13,11,23.30
2010,07,10,13,12,23.30
2010,07,10,13,13,23.30
2010,07,10,13,14,23.20
2010,07,10,13,15,23.10
2010,07,10,13,16,23.00
2010,07,10,13,17,23.00
2010,07,10,13,18,22.90
2010,07,10,13,19,22.80
2010,07,10,13,20,22.70
2010,07,10,13,21,22.60
2010,07,10,13,22,22.50
2010,07,10,13,23,22.50
2010,07,10,13,24,22.40
2010,07,10,13,25,22.40
2010,07,10,13,26,22.50
2010,07,10,13,27,22.50
2010,07,10,13,28,22.50
2010,07,10,13,29,22.40
2010,07,10,13,30,22.30
2010,07,10,13,31,22.30
2010,07,10,13,32,22.30
2010,07,10,13,33,22.30
2010,07,10,13,34,22.30
2010,07,10,13,35,22.40
2010,07,10,13,36,22.40
2010,07,10,13,37,22.40
2010,07,10,13,38,22.50
2010,07,10,13,39,22.50
2010,07,10,13,40,22.60
2010,07,10,13,41,22.60
2010,07,10,13,42,22.60
2010,07,10,13,43,22.70
2010,07,10,13,44,22.70
2010,07,10,13,45,22.70
2010,07,10,13,46,22.70
2010,07,10,13,47,22.70
2010,07,10,13,48,22.60
2010,07,10,13,49,22.60
2010,07,10,13,50,22.50
2010,07,10,13,51,22.60
2010,07,10,13,52,22.60
2010,07,10,13,53,22.60
2010,07,10,13,54,22.60
2010,07,10,13,55,22.60
2010,07,10,13,56,22.60
2010,07,10,13,57,22.60
2010,07,10,13,58,22.70
2010,07,10,13,59,22.70
2010,07,10,14,00,22.70
2010,07,10,14,01,22.80
2010,07,10,14,02,22.80
2010,07,10,14,03,22.80
2010,07,10,14,04,22.90
2010,07,10,14,05,22.90
2010,07,10,14,06,23.00
2010,07,10,14,07,23.00
2010,07,10,14,08,23.10
2010,07,10,14,09,23.10
2010,07,10,14,10,23.10
2010,07,10,14,11,23.10
2010,07,10,14,12,23.10
2010,07,10,14,13,23.10
2010,07,10,14,14,23.10
2010,07,10,14,15,23.10
2010,07,10,14,16,23.10
2010,07,10,14,17,23.20
2010,07,10,14,18,23.20
2010,07,10,14,19,23.20
2010,07,10,14,20,23.20
2010,07,10,14,21,23.30
2010,07,10,14,22,23.30
2010,07,10,14,23,23.30
2010,07,10,14,24,23.30
2010,07,10,14,25,23.30
2010,07,10,14,26,23.30
2010,07,10,14,27,23.20
2010,07,10,14,28,23.20
2010,07,10,14,29,23.20
2010,07,10,14,30,23.20
2010,07,10,14,31,23.20
2010,07,10,14,32,23.20
2010,07,10,14,33,23.30
2010,07,10,14,34,23.30
2010,07,10,14,35,23.30
2010,07,10,14,36,23.30
2010,07,10,14,37,23.30
2010,07,10,14,38,23.30
2010,07,10,14,39,23.30
2010,07,10,14,40,23.30
2010,07,10,14,41,23.30
2010,07,10,14,42,23.30
2010,07,10,14,43,23.30
2010,07,10,14,44,23.40
2010,07,10,14,45,23.50
2010,07,10,14,46,23.50
2010,07,10,14,47,23.60
2010,07,10,14,48,23.70
2010,07,10,14,49,23.80
2010,07,10,14,50,23.80
2010,07,10,14,51,23.80
2010,07,10,14,52,23.90
2010,07,10,14,53,23.90
2010,07,10,14,54,23.80
2010,07,10,14,55,23.80
2010,07,10,14,56,23.80
2010,07,10,14,57,23.80
2010,07,10,14,58,23.80
2010,07,10,14,59,23.80
2010,07,10,15,00,23.80
2010,07,10,15,01,23.90
2010,07,10,15,02,23.90
2010,07,10,15,03,24.00
2010,07,10,15,04,24.00
2010,07,10,15,05,24.10
2010,07,10,15,06,24.20
2010,07,10,15,07,24.20
2010,07,10,15,08,24.30
2010,07,10,15,09,24.30
2010,07,10,15,10,24.30
2010,07,10,15,11,24.30
2010,07,10,15,12,24.30
2010,07,10,15,13,24.30
2010,07,10,15,14,24.30
2010,07,10,15,15,24.30
2010,07,10,15,16,24.30
2010,07,10,15,17,24.30
2010,07,10,15,18,24.30
2010,07,10,15,19,24.30
2010,07,10,15,20,24.30
2010,07,10,15,21,24.20
2010,07,10,15,22,24.20
2010,07,10,15,23,24.20
2010,07,10,15,24,24.10
2010,07,10,15,25,24.10
2010,07,10,15,26,24.00
2010,07,10,15,27,24.00
2010,07,10,15,28,24.00
2010,07,10,15,29,24.00
2010,07,10,15,30,24.10
2010,07,10,15,31,24.10
2010,07,10,15,32,24.20
2010,07,10,15,33,24.20
2010,07,10,15,34,24.30
2010,07,10,15,35,24.30
2010,07,10,15,36,24.30
2010,07,10,15,37,24.20
2010,07,10,15,38,24.20
2010,07,10,15,39,24.20
2010,07,10,15,40,24.10
2010,07,10,15,41,24.10
2010,07,10,15,42,24.00
2010,07,10,15,43,24.00
2010,07,10,15,44,24.00
2010,07,10,15,45,24.00
2010,07,10,15,46,23.90
2010,07,10,15,47,23.90
2010,07,10,15,48,23.90
2010,07,10,15,49,23.90
2010,07,10,15,50,24.00
2010,07,10,15,51,24.00
2010,07,10,15,52,24.00
2010,07,10,15,53,24.10
2010,07,10,15,54,24.10
2010,07,10,15,55,24.20
2010,07,10,15,56,24.30
2010,07,10,15,57,24.30
2010,07,10,15,58,24.30
2010,07,10,15,59,24.30
2010,07,10,16,00,24.30
2010,07,10,16,01,24.30
2010,07,10,16,02,24.30
2010,07,10,16,03,24.20
2010,07,10,16,04,24.20
2010,07,10,16,05,24.20
2010,07,10,16,06,24.20
2010,07,10,16,07,24.20
2010,07,10,16,08,24.20
2010,07,10,16,09,24.20
2010,07,10,16,10,24.20
2010,07,10,16,11,24.20
2010,07,10,16,12,24.20
2010,07,10,16,13,24.20
2010,07,10,16,14,24.20
2010,07,10,16,15,24.20
2010,07,10,16,16,24.20
2010,07,10,16,17,24.20
2010,07,10,16,18,24.30
2010,07,10,16,19,24.30
2010,07,10,16,20,24.30
2010,07,10,16,21,24.30
2010,07,10,16,22,24.40
2010,07,10,16,23,24.40
2010,07,10,16,24,24.40
2010,07,10,16,25,24.40
2010,07,10,16,26,24.40
2010,07,10,16,27,24.40
2010,07,10,16,28,24.40
2010,07,10,16,29,24.40
2010,07,10,16,30,24.40
2010,07,10,16,31,24.40
2010,07,10,16,32,24.50
2010,07,10,16,33,24.50
2010,07,10,16,34,24.50
2010,07,10,16,35,24.60
2010,07,10,16,36,24.60
2010,07,10,16,37,24.70
2010,07,10,16,38,24.80
2010,07,10,16,39,24.80
2010,07,10,16,40,24.90
2010,07,10,16,41,25.00
2010,07,10,16,42,25.10
2010,07,10,16,43,25.10
2010,07,10,16,44,25.10
2010,07,10,16,45,25.20
2010,07,10,16,46,25.10
2010,07,10,16,47,25.10
2010,07,10,16,48,25.00
2010,07,10,16,49,25.00
2010,07,10,16,50,24.90
2010,07,10,16,51,24.90
2010,07,10,16,52,24.90
2010,07,10,16,53,24.80
2010,07,10,16,54,24.80
2010,07,10,16,55,24.80
2010,07,10,16,56,24.80
2010,07,10,16,57,24.70
2010,07,10,16,58,24.70
2010,07,10,16,59,24.70
2010,07,10,17,00,24.70
2010,07,10,17,01,24.80
2010,07,10,17,02,24.80
2010,07,10,17,03,24.80
2010,07,10,17,04,24.80
2010,07,10,17,05,24.80
2010,07,10,17,06,24.90
2010,07,10,17,07,24.90
2010,07,10,17,08,24.90
2010,07,10,17,09,24.90
2010,07,10,17,10,24.90
2010,07,10,17,11,25.00
2010,07,10,17,12,25.00
2010,07,10,17,13,25.10
2010,07,10,17,14,25.00
2010,07,10,17,15,25.00
2010,07,10,17,16,24.90
2010,07,10,17,17,24.90
2010,07,10,17,18,24.80
2010,07,10,17,19,24.80